Location: Unspecified
(42.2730°N, 83.7130°W)
Time: 14:32:56
(UTC+00:00)

COSMOS 2455 - Pass Details

Date: 14 December 2025
Orbit: 898 x 910 km, 67.1° (Epoch: 17 January)

Event Time Altitude Azimuth Distance (km) Brightness Sun altitude
Rises 22:40:51 0° 167° (SSE) 3,513 6.1 -7.0°
Reaches altitude 10° 22:43:56 10° 152° (SSE) 2,579 5.2 -7.5°
Maximum altitude 22:48:15 21° 105° (ESE) 1,917 4.1 -8.2°
Enters shadow 22:52:26 11° 59° (ENE) 2,552 4.5 -8.9°
